Wind_Speed
75 76 78 75 70 65 68 66 67 60 63 60 60 63 62 59 57 50 51 50 39 42 45 50 52 39 37 36 41 29 30 31 31 32 37 44 44 42 42 45 49 48 47 50
83 83 86 85 84 76 73 71 73 67 65 63 65 64 63 62 64 61 53 55 53 49 48 50 45 45 35 35 34 34 32 30 31 36 45 45 42 41 44 49 50 49 51 49
88 87 91 92 90 89 84 79 78 78 73 68 67 64 63 62 62 60 58 58 57 54 50 47 43 40 45 37 35 34 36 29 42 46 44 44 42 44 50 40 37 43 44 47
45 57 63 70 80 85 87 86 85 80 76 74 73 72 70 67 63 61 60 55 52 47 47 47 40 40 42 42 41 37 34 45 53 52 51 48 51 53 52 41 43 48 55 55
23 16 14 19 30 48 66 76 74 82 80 75 76 76 76 72 69 64 60 55 52 49 47 49 48 51 49 43 41 43 49 53 57 55 50 57 51 51 47 47 46 51 55 53
16 16 15 14 16 22 24 41 49 47 65 70 54 56 69 73 70 68 64 61 57 54 51 52 55 55 51 43 43 50 50 51 47 59 61 56 45 39 46 64 63 62 61 63
9 18 14 11 8 13 18 14 21 36 36 45 49 34 40 53 65 66 63 59 58 58 56 57 56 53 46 46 50 52 54 65 58 52 54 48 41 67 59 49 54 60 63 65
18 17 14 8 6 14 12 13 11 16 34 44 55 32 33 36 41 57 61 60 62 62 61 61 61 58 56 60 53 48 55 73 56 71 58 47 61 61 55 53 55 54 57 59
13 17 19 18 19 16 19 18 11 13 16 20 33 52 26 23 30 36 49 56 54 55 57 58 57 54 51 62 53 65 63 51 63 41 58 67 60 56 53 51 53 57 61 62
10 11 18 20 19 16 10 10 3 13 19 33 17 46 19 21 17 24 30 39 43 45 54 46 49 50 56 49 61 43 50 42 49 45 44 54 55 51 50 52 55 58 58 52
4 12 14 18 18 25 14 10 7 19 11 16 30 40 34 31 33 21 31 30 34 35 34 35 40 36 22 22 29 23 30 33 40 45 47 44 44 47 50 54 57 52 42 38
8 14 12 16 30 26 22 25 32 28 19 17 16 25 33 34 21 25 31 29 23 26 22 22 25 27 29 24 18 20 22 26 31 36 39 42 45 48 49 50 44 35 41 43
18 16 16 22 11 20 23 24 26 18 21 17 18 10 36 21 2 3 7 7 7 13 14 12 7 8 11 16 20 22 26 29 32 35 36 38 42 46 45 37 34 38 45 45
16 16 13 7 9 15 12 17 19 16 15 17 17 23 14 7 3 12 18 9 12 11 6 10 13 14 16 20 22 27 30 32 34 35 38 41 42 38 37 35 40 44 46 40
14 14 16 17 19 22 10 12 16 15 18 14 16 17 11 11 9 11 11 7 6 2 5 10 13 16 20 24 26 28 28 31 34 37 38 37 37 35 34 37 37 37 37 37
12 8 11 12 18 19 19 19 20 20 19 17 16 14 11 11 11 8 7 7 7 8 11 15 17 19 22 24 27 29 32 35 37 38 38 36 36 35 35 35 33 35 32 29
34 29 29 30 31 29 27 27 20 20 19 18 15 11 10 8 6 4 3 7 9 13 16 19 22 25 27 28 30 32 35 37 38 37 35 34 34 33 32 31 30 29 27 27
27 26 24 23 22 23 23 21 19 16 14 12 8 8 8 10 10 10 10 11 11 14 15 15 16 19 23 26 29 31 34 34 34 32 30 31 32 32 29 28 26 26 25 27
24 24 22 22 21 20 18 17 16 17 15 14 14 13 12 10 10 9 10 10 10 10 13 17 20 23 27 30 32 33 33 32 30 27 26 28 30 30 27 26 25 24 23 23
17 19 20 21 21 20 20 19 19 18 17 14 13 12 12 12 13 13 14 15 18 21 23 25 28 30 31 31 32 32 31 30 28 25 25 26 28 28 28 25 23 23 22 22
12 19 18 20 20 21 24 24 21 19 17 14 13 12 12 13 15 16 17 19 22 24 28 31 33 33 33 33 33 32 30 28 26 24 24 24 26 26 27 25 23 21 22 22
11 10 17 16 17 18 20 21 21 19 16 14 11 12 14 15 16 16 18 21 24 28 32 35 36 36 34 34 33 31 29 27 25 24 23 23 24 25 26 26 24 23 22 23
9 10 14 11 15 16 18 20 17 16 13 10 9 12 12 13 14 16 19 22 26 31 36 38 39 36 34 35 33 30 29 27 24 22 21 20 22 23 23 25 23 22 22 24
11 12 14 15 17 17 18 19 18 16 14 12 8 10 11 13 15 17 20 23 27 34 38 39 40 36 34 34 32 30 30 27 24 20 19 18 20 22 23 24 23 21 22 22
13 14 15 16 16 18 18 17 15 16 14 12 8 8 11 13 16 17 19 24 29 36 39 40 41 37 35 34 33 31 29 26 23 19 18 17 19 22 24 25 25 19 19 21
13 14 15 15 14 12 13 13 13 14 11 8 5 7 10 14 16 18 22 26 31 37 41 41 43 38 34 34 34 31 29 26 25 19 18 17 19 21 24 25 26 21 20 20
15 16 16 15 15 15 16 15 12 11 9 4 4 7 11 14 16 19 23 27 31 37 42 43 43 42 36 34 34 32 29 28 26 21 19 18 19 21 24 24 25 20 18 18
Wind_Direction
259 259 261 257 250 245 249 251 251 250 254 251 255 259 260 260 258 261 267 271 276 269 283 285 296 289 298 276 287 281 284 276 283 281 282 287 283 286 285 285 287 284 282 282
256 255 254 255 256 247 243 244 249 250 249 250 252 253 256 260 261 260 264 267 271 272 274 278 288 293 279 274 273 277 279 266 281 276 284 274 278 284 285 284 286 288 285 285
257 257 253 251 251 252 249 242 243 242 245 246 249 250 254 257 259 258 260 265 269 276 284 283 284 285 271 276 279 271 267 289 296 292 291 273 271 280 280 283 282 286 290 289
284 276 270 264 260 255 253 253 247 241 239 241 244 249 251 255 256 258 259 261 264 270 273 276 281 287 288 281 282 274 271 290 298 296 299 268 281 290 277 266 269 290 301 300
328 313 298 281 268 260 257 255 255 250 243 240 240 243 247 251 255 257 258 259 260 263 268 273 277 278 283 281 273 282 287 291 293 293 296 269 276 274 263 267 287 300 304 300
333 328 330 338 319 296 285 262 251 255 252 248 249 252 246 248 251 252 256 258 259 262 266 269 272 276 282 281 278 286 288 283 268 289 290 271 247 255 280 306 307 308 306 303
346 9 1 360 321 337 304 316 260 238 233 236 237 252 252 251 249 249 252 257 259 261 264 266 269 274 274 274 279 279 281 265 256 278 259 243 269 302 312 307 303 305 305 303
16 30 6 359 329 323 305 317 229 227 218 228 225 245 239 241 243 245 249 255 256 257 259 263 269 271 274 278 276 266 270 280 242 275 244 245 304 308 307 307 306 307 305 305
25 24 16 355 348 318 318 328 222 190 204 225 213 227 245 238 234 234 244 249 253 257 260 263 267 269 263 265 267 259 256 246 273 260 269 287 297 305 307 308 311 309 308 305
354 345 2 357 6 350 347 349 66 180 209 213 224 202 234 202 218 237 233 239 241 250 259 246 260 254 257 221 248 243 261 259 260 288 301 298 299 303 307 307 309 310 306 308
347 33 22 6 36 73 26 30 73 77 169 203 200 220 220 204 185 186 197 200 210 223 235 232 226 244 253 266 253 296 286 305 300 290 292 298 302 305 309 311 306 305 310 312
115 76 40 17 57 62 66 62 77 76 85 95 130 209 230 250 270 275 293 292 296 303 289 269 290 281 303 324 309 298 291 291 291 292 296 303 306 305 305 304 306 310 310 310
86 77 64 65 49 3 40 33 65 76 75 93 104 187 223 238 213 221 152 71 32 8 5 357 336 303 296 295 298 294 294 295 299 299 301 305 304 305 303 306 307 305 308 307
72 79 99 68 33 8 29 37 74 81 77 78 97 90 92 206 98 265 274 282 311 354 334 298 299 297 296 295 298 299 298 300 299 303 305 305 302 302 305 297 294 298 305 302
57 76 65 61 55 38 58 95 105 98 86 95 103 99 99 116 98 93 102 107 109 164 270 287 297 301 301 299 297 295 297 304 306 305 302 303 311 304 299 297 295 296 298 304
69 42 33 29 25 53 81 90 85 64 71 78 100 100 103 97 82 53 29 14 354 334 320 316 315 313 314 314 314 315 313 307 304 306 305 306 310 302 299 298 295 298 300 304
63 63 67 75 65 69 68 70 65 70 73 74 70 72 66 59 56 55 5 334 323 323 323 321 327 330 329 329 325 320 317 313 307 302 303 305 305 305 300 297 296 296 299 304
65 65 66 66 67 70 70 69 65 59 57 54 52 48 29 28 19 9 357 342 348 354 346 339 334 333 331 327 324 322 324 321 313 307 303 303 304 309 302 301 295 297 294 304
58 55 54 54 54 54 52 49 43 40 40 34 30 34 32 29 34 39 36 32 26 13 1 356 348 342 338 335 331 328 325 324 318 312 308 307 308 310 304 302 294 294 293 300
49 48 47 46 43 41 38 35 33 32 30 34 36 35 45 52 47 40 33 28 21 13 5 359 352 345 339 332 328 325 323 319 317 311 309 311 313 312 311 304 298 292 290 297
38 41 31 32 32 31 30 28 26 23 21 25 35 56 49 45 47 39 32 26 18 8 360 354 347 340 333 329 325 322 319 313 310 307 309 315 320 316 316 309 303 295 289 292
24 9 17 18 10 12 12 14 18 19 21 26 47 42 38 38 32 26 23 18 9 0 355 351 347 341 337 335 330 326 323 318 309 308 307 313 321 321 321 317 308 304 295 288
12 355 353 350 354 354 354 356 4 13 23 32 62 40 33 25 26 23 15 9 2 358 354 350 347 343 339 337 335 332 330 325 318 309 312 314 323 327 324 324 312 304 304 295
348 338 332 337 337 338 341 346 352 4 10 24 44 26 11 6 10 8 6 2 358 356 354 351 349 346 345 342 338 336 334 330 325 315 315 316 324 333 333 335 327 313 312 313
320 318 321 327 335 333 339 348 351 351 357 3 4 352 354 354 357 356 355 356 357 359 356 354 353 348 347 347 344 341 340 337 333 324 322 320 324 331 338 338 337 326 322 323
332 329 328 335 340 338 339 347 340 336 337 338 314 329 345 348 349 349 351 355 357 359 359 356 354 351 347 347 346 344 343 343 342 334 332 329 330 333 339 341 341 335 332 330
339 340 338 334 333 335 337 335 339 327 319 325 280 329 344 349 351 351 352 354 357 358 359 358 356 353 351 349 348 347 345 345 345 342 339 337 336 338 340 343 344 338 336 338
Height
5706 5706 5701 5703 5709 5710 5709 5712 5713 5727 5724 5733 5734 5735 5740 5745 5751 5757 5759 5761 5763 5765 5766 5761 5757 5756 5764 5760 5761 5762 5765 5765 5764 5762 5763 5760 5758 5755 5753 5752 5750 5747 5744 5741
5680 5680 5675 5678 5678 5689 5694 5696 5696 5705 5709 5715 5718 5724 5728 5733 5736 5742 5747 5749 5751 5755 5757 5755 5752 5755 5755 5754 5752 5753 5757 5756 5754 5751 5750 5748 5743 5741 5740 5738 5736 5735 5731 5727
5651 5642 5644 5651 5654 5659 5664 5672 5675 5681 5692 5699 5703 5709 5714 5719 5723 5729 5735 5738 5741 5742 5742 5743 5744 5745 5745 5744 5744 5744 5745 5744 5743 5740 5738 5736 5733 5729 5727 5724 5724 5723 5720 5716
5624 5620 5625 5629 5625 5630 5633 5640 5649 5659 5673 5680 5687 5693 5700 5705 5710 5716 5722 5727 5730 5731 5731 5733 5734 5734 5736 5735 5731 5735 5734 5731 5728 5727 5725 5722 5720 5716 5715 5711 5709 5706 5704 5702
5617 5614 5614 5612 5607 5609 5608 5618 5626 5635 5648 5658 5668 5677 5683 5692 5698 5704 5709 5714 5717 5720 5723 5724 5725 5726 5727 5726 5725 5723 5722 5717 5715 5711 5710 5711 5701 5701 5701 5700 5696 5693 5688 5683
5617 5613 5611 5609 5605 5601 5600 5603 5608 5614 5628 5642 5652 5661 5672 5676 5683 5689 5694 5699 5704 5707 5710 5711 5712 5714 5715 5714 5713 5711 5708 5704 5695 5697 5698 5696 5686 5689 5686 5682 5679 5676 5673 5667
5617 5613 5610 5607 5605 5602 5599 5599 5597 5604 5614 5625 5643 5648 5656 5664 5669 5675 5680 5685 5689 5693 5696 5698 5699 5701 5701 5701 5700 5697 5690 5688 5688 5688 5684 5675 5671 5674 5670 5667 5666 5662 5657 5651
5618 5614 5611 5607 5605 5601 5598 5595 5591 5595 5607 5612 5627 5636 5640 5648 5653 5662 5669 5673 5677 5682 5684 5685 5686 5688 5688 5688 5689 5688 5685 5679 5668 5671 5663 5666 5665 5662 5658 5653 5651 5645 5641 5635
5620 5617 5612 5608 5604 5601 5598 5594 5592 5588 5596 5609 5618 5624 5634 5640 5644 5650 5657 5663 5666 5670 5671 5672 5673 5675 5677 5671 5675 5676 5671 5664 5661 5666 5667 5658 5656 5650 5645 5640 5634 5631 5624 5622
5620 5618 5615 5611 5606 5600 5597 5595 5595 5597 5603 5607 5604 5618 5625 5632 5639 5643 5647 5652 5656 5661 5660 5662 5663 5665 5665 5648 5658 5655 5655 5655 5654 5653 5652 5651 5645 5638 5634 5631 5623 5618 5616 5609
5620 5620 5617 5613 5608 5604 5603 5603 5599 5600 5602 5607 5606 5613 5624 5625 5630 5634 5635 5635 5642 5644 5640 5649 5650 5653 5648 5641 5641 5643 5647 5645 5646 5643 5638 5635 5632 5628 5619 5614 5617 5612 5603 5598
5622 5622 5620 5616 5613 5610 5610 5609 5607 5608 5608 5609 5607 5613 5617 5616 5619 5622 5624 5626 5629 5631 5637 5639 5638 5638 5636 5637 5639 5640 5639 5637 5635 5632 5629 5624 5619 5615 5615 5612 5605 5598 5595 5590
5627 5625 5624 5622 5618 5616 5617 5615 5615 5615 5614 5614 5613 5613 5616 5619 5624 5625 5625 5624 5626 5628 5631 5632 5634 5636 5637 5637 5635 5633 5631 5630 5627 5625 5620 5616 5614 5609 5601 5593 5591 5590 5586 5581
5630 5629 5630 5627 5625 5622 5621 5621 5620 5621 5621 5619 5619 5618 5618 5621 5623 5624 5626 5626 5628 5629 5630 5631 5631 5631 5631 5630 5626 5625 5623 5619 5617 5615 5611 5607 5604 5597 5589 5587 5585 5582 5577 5572
5636 5635 5634 5633 5629 5626 5623 5624 5625 5625 5624 5624 5624 5624 5625 5626 5626 5625 5625 5627 5626 5629 5630 5632 5632 5630 5628 5626 5624 5621 5617 5612 5609 5606 5602 5596 5586 5583 5582 5580 5578 5574 5569 5563
5642 5639 5638 5636 5634 5631 5628 5628 5630 5630 5629 5630 5630 5630 5629 5628 5624 5623 5624 5625 5626 5627 5628 5627 5625 5623 5621 5618 5614 5610 5605 5602 5598 5591 5587 5583 5579 5577 5574 5571 5568 5564 5560 5556
5649 5647 5644 5645 5641 5639 5637 5635 5635 5635 5634 5632 5632 5632 5631 5630 5630 5631 5630 5629 5628 5626 5624 5622 5618 5614 5611 5608 5606 5603 5596 5589 5585 5582 5579 5576 5573 5569 5566 5562 5559 5555 5551 5548
5659 5657 5654 5651 5649 5648 5646 5644 5644 5642 5639 5637 5637 5635 5633 5630 5629 5628 5628 5628 5626 5622 5621 5621 5620 5617 5613 5608 5602 5596 5590 5585 5579 5575 5572 5568 5565 5561 5557 5553 5550 5547 5544 5541
5666 5664 5662 5659 5656 5653 5651 5649 5646 5643 5641 5638 5636 5634 5632 5631 5632 5631 5629 5628 5627 5627 5624 5620 5616 5612 5606 5600 5595 5590 5585 5579 5573 5569 5565 5562 5558 5554 5549 5546 5542 5539 5537 5534
5670 5668 5666 5663 5661 5658 5655 5652 5649 5646 5644 5642 5639 5637 5635 5634 5632 5631 5629 5627 5625 5622 5619 5616 5611 5606 5602 5597 5591 5585 5579 5573 5569 5564 5560 5556 5551 5546 5542 5538 5535 5532 5529 5527
5674 5671 5669 5666 5664 5661 5657 5654 5651 5648 5645 5643 5640 5638 5637 5635 5633 5631 5629 5627 5624 5621 5618 5614 5609 5604 5598 5592 5585 5579 5573 5567 5563 5558 5554 5550 5545 5540 5535 5531 5527 5524 5522 5520
5677 5676 5673 5670 5667 5664 5660 5657 5653 5649 5646 5643 5641 5639 5637 5635 5634 5633 5631 5628 5625 5622 5617 5612 5606 5599 5592 5585 5578 5572 5566 5560 5556 5552 5548 5544 5540 5534 5529 5525 5520 5517 5515 5513
5677 5676 5674 5672 5669 5665 5662 5659 5656 5652 5649 5646 5644 5642 5640 5639 5637 5636 5633 5629 5625 5621 5615 5608 5601 5593 5586 5579 5572 5566 5560 5554 5549 5545 5541 5538 5534 5530 5525 5519 5515 5511 5508 5505
5677 5674 5671 5669 5666 5664 5661 5658 5654 5652 5649 5646 5644 5643 5641 5639 5637 5635 5632 5628 5624 5618 5612 5604 5596 5588 5581 5574 5567 5561 5554 5548 5543 5539 5536 5532 5529 5525 5520 5515 5509 5505 5502 5499
5675 5673 5670 5667 5665 5661 5658 5656 5653 5651 5648 5646 5645 5644 5642 5639 5637 5634 5631 5627 5621 5615 5608 5600 5592 5584 5577 5570 5563 5556 5550 5544 5539 5534 5531 5528 5525 5520 5516 5510 5505 5501 5497 5494
5673 5671 5668 5666 5663 5660 5658 5656 5653 5650 5648 5646 5645 5644 5642 5639 5636 5633 5628 5623 5618 5612 5606 5597 5589 5581 5573 5566 5559 5552 5546 5540 5535 5530 5527 5524 5520 5516 5512 5507 5501 5496 5493 5489
5672 5669 5667 5664 5662 5659 5657 5655 5652 5650 5647 5645 5644 5643 5640 5638 5634 5630 5626 5621 5616 5610 5603 5595 5587 5578 5570 5563 5556 5549 5542 5537 5532 5527 5524 5520 5517 5513 5509 5504 5499 5494 5490 5487